Location: Unspecified
(0.0000°N, 0.0000°E)
Time: 05:09:44
(UTC+00:00)

STRAND 1 - Pass Details

Date: 16 August 2024
Orbit: 764 x 777 km, 98.4° (Epoch: 14 September)

Event Time Altitude Azimuth Distance (km) Brightness Sun altitude
Rises 18:45:43 0° 347° (NNW) 3,224 ? -10.1°
Reaches altitude 10° 18:48:28 10° 332° (NNW) 2,303 ? -10.8°
Maximum altitude 18:52:19 22° 282° (WNW) 1,633 ? -11.7°
Drops below altitude 10° 18:56:12 10° 233° (SW) 2,317 ? -12.7°
Sets 18:59:00 0° 218° (SW) 3,249 ? -13.3°
